Tracking 32412 objects as of 7-Dec-2025
HD Live streaming from Space Station
objects crossing your sky now

OPS 3367 A

Track OPS 3367 A now!
10-day predictions
OPS 3367 A is classified as:


NORAD ID: 734
Int'l Code: 1964-002B
Perigee: 789.4 km
Apogee: 810.8 km
Inclination: 99.0 °
Period: 100.7 minutes
Semi major axis: 7171 km
RCS: 0.3359 m2 (medium)
Launch date: January 19, 1964
Source: United States (US)
Launch site: AIR FORCE WESTERN TEST RANGE (AFWTR)
Your satellite tracking list
Your tracking list is empty




NASA's NSSDC Master Catalog

Two Line Element Set (TLE):
1 00734U 64002B   25340.64097132  .00000305  00000-0  13731-3 0  9998
2 00734  98.9717 259.9654 0014975  29.0720 331.1291 14.29630788221253
Source of the keplerian elements: AFSPC